Hourly Weather Klacko

Today, 27 July, Tuesday

Time Temperature Precipitation Wind Pressure Humidity
00:00 +21°C° 0.1 mm 1 mps 744 mmHg 81%
01:00 +19°C° 0.1 mm 2 mps 744 mmHg 84%
02:00 +19°C° 0 mm 2 mps 744 mmHg 86%
03:00 +19°C° 0 mm 2 mps 744 mmHg 88%
04:00 +19°C° 0 mm 2 mps 744 mmHg 90%
05:00 +20°C° 0 mm 2 mps 744 mmHg 85%
06:00 +21°C° 0 mm 2 mps 744 mmHg 80%
07:00 +23°C° 0 mm 2 mps 744 mmHg 75%
08:00 +24°C° 0 mm 3 mps 744 mmHg 68%
09:00 +26°C° 0 mm 3 mps 744 mmHg 61%
10:00 +27°C° 0 mm 4 mps 745 mmHg 54%
11:00 +28°C° 0.1 mm 4 mps 745 mmHg 49%
12:00 +29°C° 0.1 mm 5 mps 745 mmHg 45%
13:00 +30°C° 0.1 mm 5 mps 744 mmHg 41%
14:00 +29°C° 0 mm 5 mps 744 mmHg 41%
15:00 +29°C° 0 mm 5 mps 744 mmHg 41%
16:00 +28°C° 0 mm 5 mps 744 mmHg 41%
17:00 +27°C° 0 mm 4 mps 744 mmHg 47%
18:00 +26°C° 0 mm 3 mps 744 mmHg 53%
19:00 +25°C° 0 mm 2 mps 744 mmHg 59%
20:00 +23°C° 0 mm 2 mps 745 mmHg 65%
21:00 +21°C° 0 mm 2 mps 745 mmHg 71%
22:00 +19°C° 0 mm 2 mps 745 mmHg 77%
23:00 +19°C° 0 mm 2 mps 745 mmHg 80%

Tomorrow, 28 July, Wednesday

Time Temperature Precipitation Wind Pressure Humidity
00:00 +19°C° 0 mm 1 mps 745 mmHg 83%
01:00 +18°C° 0 mm 1 mps 745 mmHg 86%
02:00 +18°C° 0 mm 1 mps 745 mmHg 87%
03:00 +17°C° 0 mm 2 mps 745 mmHg 87%
04:00 +17°C° 0 mm 2 mps 745 mmHg 88%
05:00 +18°C° 0 mm 2 mps 745 mmHg 81%
06:00 +20°C° 0 mm 3 mps 745 mmHg 73%
07:00 +22°C° 0 mm 3 mps 745 mmHg 66%
08:00 +24°C° 0 mm 3 mps 745 mmHg 62%
09:00 +24°C° 0 mm 3 mps 745 mmHg 58%
10:00 +25°C° 0 mm 3 mps 745 mmHg 54%
11:00 +24°C° 0.3 mm 3 mps 745 mmHg 61%
12:00 +22°C° 0.3 mm 3 mps 745 mmHg 68%
13:00 +21°C° 0.3 mm 2 mps 745 mmHg 75%
14:00 +22°C° 0.6 mm 3 mps 745 mmHg 72%
15:00 +22°C° 0.6 mm 4 mps 744 mmHg 70%
16:00 +23°C° 0.6 mm 4 mps 744 mmHg 68%
17:00 +22°C° 0.2 mm 4 mps 744 mmHg 70%
18:00 +21°C° 0.2 mm 3 mps 744 mmHg 71%
19:00 +21°C° 0.2 mm 2 mps 744 mmHg 72%
20:00 +19°C° 0 mm 3 mps 744 mmHg 78%
21:00 +18°C° 0 mm 3 mps 744 mmHg 84%
22:00 +17°C° 0 mm 3 mps 744 mmHg 89%
23:00 +16°C° 0 mm 3 mps 744 mmHg 91%

Day after tomorrow, 29 July, Thursday

Time Temperature Precipitation Wind Pressure Humidity
00:00 +16°C° 0 mm 3 mps 744 mmHg 94%
01:00 +16°C° 0 mm 3 mps 744 mmHg 96%
02:00 +14°C° 0 mm 3 mps 744 mmHg 96%
03:00 +14°C° 0 mm 3 mps 744 mmHg 96%
04:00 +14°C° 0 mm 3 mps 744 mmHg 97%
05:00 +16°C° 0 mm 3 mps 743 mmHg 90%
06:00 +17°C° 0 mm 4 mps 743 mmHg 83%
07:00 +19°C° 0 mm 4 mps 743 mmHg 75%
08:00 +20°C° 0.1 mm 5 mps 743 mmHg 67%
09:00 +22°C° 0.1 mm 6 mps 743 mmHg 58%
10:00 +23°C° 0.1 mm 7 mps 743 mmHg 49%
11:00 +24°C° 0 mm 7 mps 743 mmHg 47%
12:00 +24°C° 0 mm 7 mps 743 mmHg 44%
13:00 +24°C° 0 mm 8 mps 743 mmHg 42%
14:00 +24°C° 0 mm 7 mps 743 mmHg 40%
15:00 +24°C° 0 mm 7 mps 743 mmHg 39%
16:00 +24°C° 0 mm 7 mps 743 mmHg 37%
17:00 +23°C° 0 mm 6 mps 743 mmHg 39%
18:00 +22°C° 0 mm 5 mps 743 mmHg 41%
19:00 +21°C° 0 mm 5 mps 743 mmHg 43%
20:00 +19°C° 0 mm 4 mps 743 mmHg 49%
21:00 +17°C° 0 mm 3 mps 743 mmHg 56%
22:00 +14°C° 0 mm 3 mps 743 mmHg 62%
23:00 +14°C° 0 mm 3 mps 743 mmHg 66%

30 July, Friday

Time Temperature Precipitation Wind Pressure Humidity
00:00 +13°C° 0 mm 3 mps 743 mmHg 69%
01:00 +12°C° 0 mm 3 mps 743 mmHg 73%
02:00 +12°C° 0 mm 3 mps 743 mmHg 75%
03:00 +12°C° 0 mm 3 mps 743 mmHg 76%
04:00 +11°C° 0 mm 3 mps 742 mmHg 78%
05:00 +13°C° 0 mm 3 mps 742 mmHg 72%
06:00 +15°C° 0 mm 4 mps 742 mmHg 66%
07:00 +17°C° 0 mm 4 mps 742 mmHg 61%
08:00 +19°C° 0 mm 5 mps 742 mmHg 55%
09:00 +20°C° 0 mm 6 mps 742 mmHg 50%
10:00 +22°C° 0 mm 6 mps 742 mmHg 45%
11:00 +23°C° 0 mm 6 mps 742 mmHg 42%
12:00 +23°C° 0 mm 7 mps 742 mmHg 39%
13:00 +24°C° 0 mm 7 mps 741 mmHg 36%
14:00 +24°C° 0 mm 6 mps 741 mmHg 36%
15:00 +24°C° 0 mm 6 mps 741 mmHg 35%
16:00 +24°C° 0 mm 6 mps 741 mmHg 35%
17:00 +23°C° 0 mm 5 mps 741 mmHg 40%
18:00 +22°C° 0 mm 4 mps 741 mmHg 45%
19:00 +21°C° 0 mm 3 mps 741 mmHg 50%
20:00 +19°C° 0 mm 3 mps 741 mmHg 55%
21:00 +18°C° 0 mm 2 mps 741 mmHg 61%
22:00 +16°C° 0 mm 2 mps 741 mmHg 67%
23:00 +16°C° 0 mm 2 mps 741 mmHg 69%

31 July, Saturday

Time Temperature Precipitation Wind Pressure Humidity
00:00 +16°C° 0 mm 2 mps 741 mmHg 71%
01:00 +15°C° 0 mm 2 mps 741 mmHg 73%
02:00 +15°C° 0 mm 2 mps 740 mmHg 74%
03:00 +15°C° 0 mm 2 mps 740 mmHg 75%
04:00 +15°C° 0 mm 2 mps 740 mmHg 76%
05:00 +16°C° 0.3 mm 3 mps 740 mmHg 77%
06:00 +17°C° 0.3 mm 4 mps 739 mmHg 78%
07:00 +17°C° 0.3 mm 5 mps 739 mmHg 79%
08:00 +19°C° 0.1 mm 5 mps 739 mmHg 73%
09:00 +20°C° 0.1 mm 6 mps 740 mmHg 67%
10:00 +21°C° 0.1 mm 7 mps 740 mmHg 61%
11:00 +21°C° 0.1 mm 7 mps 740 mmHg 58%
12:00 +21°C° 0.1 mm 7 mps 740 mmHg 55%
13:00 +20°C° 0.1 mm 7 mps 740 mmHg 53%
14:00 +20°C° 0 mm 7 mps 740 mmHg 54%
15:00 +21°C° 0 mm 7 mps 740 mmHg 55%
16:00 +21°C° 0 mm 7 mps 740 mmHg 56%
17:00 +20°C° 0.5 mm 6 mps 740 mmHg 64%
18:00 +17°C° 0.5 mm 6 mps 740 mmHg 73%
19:00 +16°C° 0.5 mm 5 mps 740 mmHg 81%
20:00 +16°C° 0.2 mm 5 mps 740 mmHg 85%
21:00 +15°C° 0.2 mm 5 mps 741 mmHg 88%
22:00 +14°C° 0.2 mm 4 mps 741 mmHg 92%
23:00 +13°C° 0 mm 4 mps 741 mmHg 93%

1 August, Sunday

Time Temperature Precipitation Wind Pressure Humidity
00:00 +13°C° 0 mm 4 mps 741 mmHg 94%
01:00 +12°C° 0 mm 4 mps 741 mmHg 95%
02:00 +12°C° 0 mm 4 mps 741 mmHg 95%
03:00 +11°C° 0 mm 4 mps 741 mmHg 95%
04:00 +11°C° 0 mm 4 mps 741 mmHg 95%
05:00 +12°C° 0 mm 4 mps 741 mmHg 90%
06:00 +13°C° 0 mm 5 mps 741 mmHg 85%
07:00 +14°C° 0 mm 5 mps 741 mmHg 80%
08:00 +16°C° 0 mm 5 mps 741 mmHg 70%
09:00 +19°C° 0 mm 6 mps 742 mmHg 60%
10:00 +20°C° 0 mm 6 mps 742 mmHg 50%
11:00 +21°C° 0 mm 6 mps 741 mmHg 46%
12:00 +22°C° 0 mm 6 mps 741 mmHg 43%
13:00 +23°C° 0 mm 6 mps 741 mmHg 39%
14:00 +22°C° 0 mm 6 mps 741 mmHg 44%
15:00 +22°C° 0 mm 5 mps 741 mmHg 49%
16:00 +21°C° 0 mm 5 mps 741 mmHg 54%
17:00 +19°C° 0.6 mm 5 mps 741 mmHg 64%
18:00 +18°C° 0.6 mm 4 mps 741 mmHg 73%
19:00 +17°C° 0.6 mm 4 mps 741 mmHg 83%
20:00 +16°C° 0.1 mm 3 mps 741 mmHg 87%
21:00 +14°C° 0.1 mm 3 mps 741 mmHg 90%
22:00 +12°C° 0.1 mm 3 mps 741 mmHg 93%
23:00 +12°C° 0 mm 3 mps 741 mmHg 93%
Show more